EZY8635 EGKK-EDDH

Flight info

Callsign EZY8635
Flight time 1h 13m
Altitude 39000
Route FRANE M604 PAAVO Q295 SOMVA DCT MAVAS DCT PARYD DCT GASTU DCT OSTOR T904 RIBSO RIBSO3D
Aircraft A20N/M-SDE2E3FGHIRWXY/LB1

Departure

Time 2026-05-06 21:28
Airport London Gatwick Airport (EGKK)

Arrival

Time 2026-05-06 22:41
Airport Hamburg Helmut Schmidt Airport (EDDH)
Time Latitude Longitude Altitude Speed Heading
2026-05-06 20:50 51.15660 -0.17699 205 ft 0 kts 167°
2026-05-06 21:10 51.15672 -0.17704 212 ft 2 kts 168°
2026-05-06 21:10 51.15686 -0.17708 218 ft 2 kts 168°
2026-05-06 21:10 51.15702 -0.17714 211 ft 2 kts 168°
2026-05-06 21:10 51.15718 -0.17718 213 ft 2 kts 186°
2026-05-06 21:11 51.15733 -0.17708 206 ft 2 kts 238°
2026-05-06 21:11 51.15738 -0.17684 212 ft 2 kts 260°
2026-05-06 21:11 51.15740 -0.17669 208 ft 0 kts 257°
2026-05-06 21:14 51.15736 -0.17699 213 ft 7 kts 258°
2026-05-06 21:15 51.15722 -0.17807 204 ft 12 kts 258°
2026-05-06 21:15 51.15701 -0.17956 210 ft 13 kts 257°
2026-05-06 21:15 51.15681 -0.18106 207 ft 15 kts 257°
2026-05-06 21:15 51.15657 -0.18275 208 ft 17 kts 257°
2026-05-06 21:16 51.15626 -0.18351 210 ft 8 kts 206°
2026-05-06 21:16 51.15560 -0.18341 210 ft 11 kts 167°
2026-05-06 21:16 51.15474 -0.18311 206 ft 14 kts 168°
2026-05-06 21:16 51.15373 -0.18276 207 ft 16 kts 168°
2026-05-06 21:17 51.15257 -0.18235 204 ft 16 kts 167°
2026-05-06 21:17 51.15189 -0.18310 209 ft 14 kts 274°
2026-05-06 21:17 51.15167 -0.18475 210 ft 17 kts 260°
2026-05-06 21:17 51.15139 -0.18669 212 ft 20 kts 256°
2026-05-06 21:18 51.15109 -0.18900 208 ft 22 kts 258°
2026-05-06 21:18 51.15075 -0.19152 208 ft 24 kts 257°
2026-05-06 21:18 51.15035 -0.19428 208 ft 26 kts 258°
2026-05-06 21:18 51.14996 -0.19719 210 ft 27 kts 257°
2026-05-06 21:19 51.14953 -0.20027 210 ft 30 kts 258°
2026-05-06 21:19 51.14909 -0.20357 208 ft 31 kts 258°
2026-05-06 21:19 51.14861 -0.20688 204 ft 30 kts 256°
2026-05-06 21:19 51.14820 -0.20978 209 ft 23 kts 257°
2026-05-06 21:20 51.14785 -0.21186 205 ft 16 kts 250°
2026-05-06 21:20 51.14780 -0.21217 208 ft 0 kts 258°
2026-05-06 21:20 51.14780 -0.21219 208 ft 1 kts 258°
2026-05-06 21:20 51.14773 -0.21264 204 ft 1 kts 256°
2026-05-06 21:21 51.14770 -0.21289 215 ft 1 kts 256°
2026-05-06 21:21 51.14769 -0.21292 215 ft 0 kts 256°
2026-05-06 21:22 51.14769 -0.21295 205 ft 2 kts 256°
2026-05-06 21:23 51.14757 -0.21364 205 ft 10 kts 250°
2026-05-06 21:23 51.14732 -0.21403 212 ft 1 kts 197°
2026-05-06 21:23 51.14699 -0.21404 212 ft 9 kts 169°
2026-05-06 21:23 51.14626 -0.21333 206 ft 7 kts 167°
2026-05-06 21:24 51.14625 -0.21333 210 ft 0 kts 167°
2026-05-06 21:25 51.14621 -0.21332 209 ft 5 kts 167°
2026-05-06 21:26 51.14534 -0.21263 205 ft 18 kts 130°
2026-05-06 21:26 51.14529 -0.21104 213 ft 0 kts 77°
2026-05-06 21:27 51.14549 -0.20958 213 ft 51 kts 78°
2026-05-06 21:27 51.14691 -0.19922 209 ft 135 kts 77°
2026-05-06 21:28 51.14924 -0.18194 569 ft 171 kts 78°
2026-05-06 21:28 51.15180 -0.16288 1418 ft 181 kts 76°
2026-05-06 21:28 51.15447 -0.14275 2352 ft 188 kts 76°
2026-05-06 21:28 51.15729 -0.12209 3164 ft 198 kts 76°
2026-05-06 21:29 51.16049 -0.09954 3721 ft 218 kts 76°
2026-05-06 21:29 51.16403 -0.07462 4307 ft 240 kts 76°
2026-05-06 21:29 51.16761 -0.04829 5145 ft 246 kts 79°
2026-05-06 21:29 51.16914 -0.02084 5496 ft 251 kts 90°
2026-05-06 21:30 51.16859 0.00727 5161 ft 262 kts 91°
2026-05-06 21:30 51.16789 0.03701 4995 ft 270 kts 91°
2026-05-06 21:30 51.16724 0.06675 4991 ft 269 kts 91°
2026-05-06 21:30 51.16663 0.09655 5017 ft 269 kts 91°
2026-05-06 21:31 51.16606 0.12634 5019 ft 269 kts 91°
2026-05-06 21:31 51.16548 0.15617 4997 ft 269 kts 91°
2026-05-06 21:31 51.16524 0.18593 4983 ft 268 kts 89°
2026-05-06 21:31 51.16538 0.21564 4986 ft 269 kts 89°
2026-05-06 21:32 51.16559 0.24546 5102 ft 270 kts 89°
2026-05-06 21:32 51.16586 0.30516 6870 ft 269 kts 89°
2026-05-06 21:32 51.16591 0.33545 7803 ft 278 kts 89°
2026-05-06 21:33 51.16594 0.36661 8784 ft 284 kts 89°
2026-05-06 21:33 51.16596 0.39842 9758 ft 291 kts 89°
2026-05-06 21:33 51.16597 0.43095 10676 ft 295 kts 89°
2026-05-06 21:33 51.16597 0.46380 11630 ft 298 kts 89°
2026-05-06 21:34 51.16649 0.49704 12546 ft 302 kts 80°
2026-05-06 21:34 51.17360 0.52835 13428 ft 304 kts 56°
2026-05-06 21:34 51.18823 0.55243 14262 ft 305 kts 31°
2026-05-06 21:34 51.20779 0.56536 15038 ft 307 kts 13°
2026-05-06 21:35 51.22880 0.57260 15830 ft 311 kts
2026-05-06 21:35 51.25018 0.57906 16621 ft 315 kts
2026-05-06 21:35 51.27187 0.58598 17399 ft 320 kts 10°
2026-05-06 21:35 51.29377 0.59352 18178 ft 325 kts 11°
2026-05-06 21:36 51.31600 0.60159 18866 ft 329 kts 11°
2026-05-06 21:36 51.33811 0.60978 19544 ft 332 kts 11°
2026-05-06 21:36 51.36074 0.61825 20222 ft 336 kts 11°
2026-05-06 21:36 51.38362 0.62683 20878 ft 340 kts 11°
2026-05-06 21:37 51.40702 0.63563 21279 ft 353 kts 11°
2026-05-06 21:37 51.43155 0.64492 21471 ft 371 kts 11°
2026-05-06 21:37 51.45729 0.65470 21642 ft 389 kts 11°
2026-05-06 21:37 51.48407 0.66490 21999 ft 399 kts 11°
2026-05-06 21:38 51.51120 0.67527 22653 ft 402 kts 11°
2026-05-06 21:38 51.53856 0.68573 23285 ft 406 kts 11°
2026-05-06 21:38 51.56619 0.69629 23845 ft 410 kts 11°
2026-05-06 21:38 51.59408 0.70694 24397 ft 413 kts 11°
2026-05-06 21:39 51.62214 0.71765 24899 ft 416 kts 11°
2026-05-06 21:39 51.65040 0.72844 25419 ft 419 kts 11°
2026-05-06 21:39 51.67892 0.73933 25902 ft 422 kts 11°
2026-05-06 21:39 51.70761 0.75031 26382 ft 426 kts 11°
2026-05-06 21:40 51.72652 0.75755 26685 ft 428 kts 11°
2026-05-06 21:40 51.75570 0.76782 27161 ft 430 kts
2026-05-06 21:40 51.78506 0.77821 27601 ft 435 kts 15°
2026-05-06 21:40 51.81310 0.79719 28017 ft 441 kts 27°
2026-05-06 21:41 51.83199 0.81609 28313 ft 445 kts 33°
2026-05-06 21:41 51.85599 0.84811 28723 ft 450 kts 45°
2026-05-06 21:41 51.87536 0.88823 29090 ft 455 kts 58°
2026-05-06 21:41 51.88924 0.93439 29465 ft 459 kts 68°
2026-05-06 21:42 51.90033 0.98310 29834 ft 463 kts 70°
2026-05-06 21:42 51.91127 1.03255 29984 ft 471 kts 69°
2026-05-06 21:42 51.92285 1.08224 30404 ft 470 kts 68°
2026-05-06 21:42 51.93483 1.13144 30879 ft 470 kts 68°
2026-05-06 21:43 51.94714 1.18064 31231 ft 472 kts 67°
2026-05-06 21:43 51.95960 1.22989 31659 ft 472 kts 67°
2026-05-06 21:43 51.97208 1.27903 32109 ft 471 kts 67°
2026-05-06 21:43 51.98452 1.32815 32552 ft 470 kts 67°
2026-05-06 21:44 51.99689 1.37711 32985 ft 469 kts 67°
2026-05-06 21:44 52.00925 1.42615 33416 ft 469 kts 67°
2026-05-06 21:44 52.02156 1.47513 33839 ft 468 kts 67°
2026-05-06 21:44 52.03383 1.52410 34207 ft 467 kts 67°
2026-05-06 21:45 52.04605 1.57293 34525 ft 467 kts 67°
2026-05-06 21:45 52.05826 1.62187 34837 ft 467 kts 67°
2026-05-06 21:45 52.07043 1.67074 35132 ft 467 kts 68°
2026-05-06 21:45 52.08260 1.71968 35445 ft 467 kts 68°
2026-05-06 21:46 52.09472 1.76857 35736 ft 466 kts 68°
2026-05-06 21:46 52.10683 1.81750 36021 ft 466 kts 68°
2026-05-06 21:46 52.11892 1.86646 36290 ft 466 kts 68°
2026-05-06 21:46 52.13081 1.91475 36570 ft 466 kts 68°
2026-05-06 21:47 52.14284 1.96368 36841 ft 466 kts 68°
2026-05-06 21:47 52.15485 2.01264 37102 ft 466 kts 68°
2026-05-06 21:47 52.16683 2.06158 37344 ft 466 kts 68°
2026-05-06 21:47 52.17881 2.11065 37575 ft 466 kts 68°
2026-05-06 21:48 52.19076 2.15973 37795 ft 466 kts 68°
2026-05-06 21:48 52.20270 2.20885 38001 ft 467 kts 68°
2026-05-06 21:48 52.21465 2.25813 38224 ft 467 kts 68°
2026-05-06 21:48 52.22658 2.30745 38432 ft 467 kts 68°
2026-05-06 21:49 52.23849 2.35679 38635 ft 467 kts 68°
2026-05-06 21:49 52.25038 2.40614 38801 ft 468 kts 68°
2026-05-06 21:49 52.27422 2.50548 38927 ft 473 kts 68°
2026-05-06 21:50 52.29815 2.60563 38986 ft 469 kts 68°
2026-05-06 21:50 52.31826 2.70702 39010 ft 472 kts 74°
2026-05-06 21:51 52.33661 2.81106 39011 ft 481 kts 73°
2026-05-06 21:51 52.35527 2.91678 39009 ft 487 kts 74°
2026-05-06 21:52 52.37393 3.02376 39007 ft 491 kts 74°
2026-05-06 21:52 52.39258 3.13150 39005 ft 491 kts 74°
2026-05-06 21:53 52.41096 3.23847 39002 ft 492 kts 74°
2026-05-06 21:53 52.42949 3.34653 38999 ft 492 kts 74°
2026-05-06 21:54 52.44798 3.45446 39000 ft 492 kts 74°
2026-05-06 21:54 52.46637 3.56264 38999 ft 492 kts 74°
2026-05-06 21:55 52.48463 3.67090 38999 ft 492 kts 75°
2026-05-06 21:55 52.50279 3.77925 39001 ft 493 kts 75°
2026-05-06 21:56 52.52085 3.88771 39003 ft 493 kts 75°
2026-05-06 21:56 52.53880 3.99620 39005 ft 492 kts 75°
2026-05-06 21:57 52.55665 4.10476 39000 ft 492 kts 75°
2026-05-06 21:57 52.57426 4.21253 38995 ft 491 kts 75°
2026-05-06 21:58 52.59128 4.31742 38993 ft 491 kts 75°
2026-05-06 21:58 52.60245 4.38658 38993 ft 492 kts 75°
2026-05-06 21:59 52.61960 4.49331 38990 ft 491 kts 75°
2026-05-06 21:59 52.63693 4.60189 38987 ft 490 kts 75°
2026-05-06 22:00 52.65414 4.71041 38988 ft 490 kts 76°
2026-05-06 22:00 52.67127 4.81911 38984 ft 490 kts 76°
2026-05-06 22:01 52.68829 4.92783 38985 ft 490 kts 76°
2026-05-06 22:01 52.70522 5.03673 38987 ft 490 kts 76°
2026-05-06 22:02 52.72207 5.14583 38984 ft 491 kts 76°
2026-05-06 22:02 52.73884 5.25509 38985 ft 491 kts 76°
2026-05-06 22:03 52.75549 5.36436 38979 ft 491 kts 76°
2026-05-06 22:03 52.77193 5.47302 38981 ft 491 kts 76°
2026-05-06 22:04 52.78839 5.58251 38979 ft 491 kts 77°
2026-05-06 22:04 52.80474 5.69205 38975 ft 491 kts 77°
2026-05-06 22:05 52.82098 5.80163 38976 ft 491 kts 77°
2026-05-06 22:05 52.83713 5.91137 38974 ft 491 kts 77°
2026-05-06 22:06 52.85230 6.01508 38975 ft 491 kts 77°
2026-05-06 22:06 52.86828 6.12512 38971 ft 491 kts 77°
2026-05-06 22:07 52.88413 6.23510 38965 ft 491 kts 77°
2026-05-06 22:07 52.89990 6.34525 38966 ft 491 kts 77°
2026-05-06 22:08 52.91556 6.45546 38964 ft 491 kts 77°
2026-05-06 22:08 52.92640 6.53220 38962 ft 492 kts 78°
2026-05-06 22:09 52.94189 6.64255 38964 ft 492 kts 78°
2026-05-06 22:09 52.95720 6.75240 38965 ft 492 kts 78°
2026-05-06 22:10 52.97249 6.86298 38962 ft 492 kts 78°
2026-05-06 22:10 52.98770 6.97371 38958 ft 492 kts 78°
2026-05-06 22:11 53.00280 7.08453 38950 ft 492 kts 78°
2026-05-06 22:11 53.01779 7.19539 38946 ft 492 kts 78°
2026-05-06 22:12 53.03168 7.28700 38947 ft 493 kts 70°
2026-05-06 22:12 53.04634 7.33859 38943 ft 494 kts 58°
2026-05-06 22:12 53.06667 7.38453 38946 ft 495 kts 47°
2026-05-06 22:13 53.09177 7.42357 38942 ft 490 kts 36°
2026-05-06 22:13 53.11959 7.45469 38948 ft 475 kts 31°
2026-05-06 22:13 53.14721 7.48373 38948 ft 464 kts 31°
2026-05-06 22:13 53.17452 7.51256 38948 ft 467 kts 31°
2026-05-06 22:14 53.22977 7.57115 38950 ft 472 kts 31°
2026-05-06 22:14 53.28508 7.63004 38836 ft 471 kts 31°
2026-05-06 22:15 53.31270 7.65951 38536 ft 470 kts 31°
2026-05-06 22:15 53.33989 7.68857 37914 ft 470 kts 31°
2026-05-06 22:15 53.36774 7.71838 37278 ft 468 kts 31°
2026-05-06 22:15 53.39481 7.74740 36557 ft 469 kts 31°
2026-05-06 22:16 53.42236 7.77697 35689 ft 472 kts 32°
2026-05-06 22:16 53.45012 7.80681 34803 ft 476 kts 32°
2026-05-06 22:16 53.47813 7.83697 33941 ft 479 kts 32°
2026-05-06 22:16 53.50622 7.86727 32952 ft 481 kts 32°
2026-05-06 22:17 53.53443 7.89774 31945 ft 483 kts 32°
2026-05-06 22:17 53.56283 7.92846 30906 ft 487 kts 32°
2026-05-06 22:17 53.59130 7.95936 29877 ft 489 kts 33°
2026-05-06 22:17 53.61773 7.99525 28949 ft 487 kts 45°
2026-05-06 22:18 53.63900 8.03897 28370 ft 478 kts 57°
2026-05-06 22:18 53.65423 8.08791 27881 ft 466 kts 69°
2026-05-06 22:18 53.66405 8.13944 27250 ft 459 kts 76°
2026-05-06 22:18 53.67207 8.19122 26638 ft 454 kts 76°
2026-05-06 22:19 53.68019 8.24234 26026 ft 449 kts 75°
2026-05-06 22:19 53.68881 8.29272 25421 ft 445 kts 74°
2026-05-06 22:19 53.69779 8.34246 24809 ft 441 kts 73°
2026-05-06 22:19 53.70694 8.39171 24150 ft 439 kts 73°
2026-05-06 22:20 53.71613 8.44062 23534 ft 436 kts 73°
2026-05-06 22:20 53.72527 8.48916 22921 ft 431 kts 73°
2026-05-06 22:20 53.73427 8.53713 22292 ft 426 kts 73°
2026-05-06 22:20 53.74315 8.58455 21681 ft 421 kts 73°
2026-05-06 22:21 53.75187 8.63135 21206 ft 413 kts 73°
2026-05-06 22:21 53.76039 8.67712 20884 ft 403 kts 73°
2026-05-06 22:21 53.76872 8.72204 20524 ft 400 kts 73°
2026-05-06 22:21 53.77702 8.76695 20068 ft 400 kts 73°
2026-05-06 22:22 53.78530 8.81183 19444 ft 401 kts 73°
2026-05-06 22:22 53.79363 8.85710 18565 ft 406 kts 73°
2026-05-06 22:22 53.80194 8.90234 17765 ft 407 kts 73°
2026-05-06 22:22 53.81025 8.94776 17133 ft 402 kts 73°
2026-05-06 22:23 53.81846 8.99266 16490 ft 397 kts 73°
2026-05-06 22:23 53.82514 9.03768 15871 ft 391 kts 81°
2026-05-06 22:23 53.82716 9.08328 15277 ft 386 kts 91°
2026-05-06 22:23 53.82510 9.12829 14638 ft 378 kts 96°
2026-05-06 22:24 53.82253 9.17145 14371 ft 357 kts 96°
2026-05-06 22:24 53.82016 9.21226 13929 ft 344 kts 96°
2026-05-06 22:24 53.81780 9.25293 12866 ft 350 kts 96°
2026-05-06 22:24 53.81548 9.29353 12216 ft 343 kts 94°
2026-05-06 22:25 53.81761 9.33384 11878 ft 350 kts 74°
2026-05-06 22:25 53.82775 9.37116 11455 ft 350 kts 54°
2026-05-06 22:25 53.84291 9.40343 10778 ft 352 kts 50°
2026-05-06 22:25 53.85851 9.43517 10433 ft 345 kts 50°
2026-05-06 22:26 53.87356 9.46579 10290 ft 331 kts 50°
2026-05-06 22:26 53.88793 9.49516 10136 ft 316 kts 50°
2026-05-06 22:26 53.90146 9.52301 9964 ft 296 kts 50°
2026-05-06 22:26 53.91545 9.54693 9794 ft 276 kts 32°
2026-05-06 22:27 53.93253 9.55836 9628 ft 256 kts
2026-05-06 22:27 53.94950 9.55701 9473 ft 237 kts 343°
2026-05-06 22:27 53.96407 9.54625 9344 ft 221 kts 334°
2026-05-06 22:27 53.97857 9.54153 9119 ft 208 kts
2026-05-06 22:28 53.99128 9.54977 9039 ft 188 kts 36°
2026-05-06 22:28 53.99933 9.56585 8910 ft 173 kts 63°
2026-05-06 22:28 54.00458 9.58362 8677 ft 166 kts 62°
2026-05-06 22:28 54.00986 9.60083 8376 ft 163 kts 62°
2026-05-06 22:29 54.01513 9.61782 8044 ft 161 kts 62°
2026-05-06 22:29 54.01819 9.63579 7611 ft 160 kts 91°
2026-05-06 22:29 54.01465 9.65287 7316 ft 151 kts 124°
2026-05-06 22:29 54.00746 9.66491 7055 ft 143 kts 141°
2026-05-06 22:30 53.99903 9.67393 6714 ft 143 kts 149°
2026-05-06 22:30 53.99028 9.68185 6381 ft 142 kts 150°
2026-05-06 22:30 53.98162 9.68943 6086 ft 138 kts 150°
2026-05-06 22:30 53.97314 9.69687 5763 ft 136 kts 149°
2026-05-06 22:31 53.96474 9.70426 5438 ft 136 kts 149°
2026-05-06 22:31 53.95640 9.71160 5127 ft 134 kts 149°
2026-05-06 22:31 53.94813 9.71886 4807 ft 133 kts 148°
2026-05-06 22:31 53.94003 9.72596 4618 ft 127 kts 148°
2026-05-06 22:32 53.93182 9.73321 4587 ft 135 kts 148°
2026-05-06 22:32 53.92362 9.74039 4529 ft 132 kts 148°
2026-05-06 22:32 53.91545 9.74757 4472 ft 132 kts 148°
2026-05-06 22:32 53.90727 9.75474 4410 ft 132 kts 148°
2026-05-06 22:33 53.89909 9.76192 4316 ft 130 kts 148°
2026-05-06 22:33 53.89098 9.76902 4251 ft 132 kts 147°
2026-05-06 22:33 53.88288 9.77613 4193 ft 131 kts 147°
2026-05-06 22:33 53.87475 9.78324 4133 ft 131 kts 147°
2026-05-06 22:34 53.86663 9.79035 4074 ft 131 kts 147°
2026-05-06 22:34 53.85854 9.79743 4012 ft 131 kts 147°
2026-05-06 22:34 53.85045 9.80450 3955 ft 130 kts 147°
2026-05-06 22:34 53.84239 9.81156 3892 ft 130 kts 147°
2026-05-06 22:35 53.83435 9.81859 3834 ft 130 kts 147°
2026-05-06 22:35 53.82634 9.82559 3767 ft 129 kts 147°
2026-05-06 22:35 53.81831 9.83261 3658 ft 129 kts 146°
2026-05-06 22:35 53.81036 9.83954 3520 ft 128 kts 146°
2026-05-06 22:36 53.80246 9.84643 3376 ft 127 kts 146°
2026-05-06 22:36 53.79463 9.85327 3226 ft 126 kts 146°
2026-05-06 22:36 53.78684 9.86006 3062 ft 126 kts 146°
2026-05-06 22:36 53.77909 9.86682 2895 ft 125 kts 146°
2026-05-06 22:37 53.77137 9.87354 2731 ft 124 kts 145°
2026-05-06 22:37 53.76369 9.88024 2575 ft 124 kts 145°
2026-05-06 22:37 53.75605 9.88689 2402 ft 123 kts 145°
2026-05-06 22:37 53.74843 9.89352 2231 ft 123 kts 145°
2026-05-06 22:38 53.74084 9.90012 2062 ft 123 kts 145°
2026-05-06 22:38 53.73335 9.90664 1894 ft 123 kts 145°
2026-05-06 22:38 53.72577 9.91323 1732 ft 122 kts 145°
2026-05-06 22:38 53.71817 9.91985 1563 ft 125 kts 145°
2026-05-06 22:39 53.71009 9.92693 1484 ft 141 kts 146°
2026-05-06 22:39 53.70134 9.93463 1340 ft 135 kts 146°
2026-05-06 22:39 53.69323 9.94145 1104 ft 127 kts 148°
2026-05-06 22:39 53.68511 9.94864 864 ft 136 kts 147°
2026-05-06 22:40 53.67706 9.95578 608 ft 126 kts 150°
2026-05-06 22:40 53.66957 9.96200 412 ft 115 kts 149°
2026-05-06 22:40 53.66165 9.96897 349 ft 136 kts 150°
2026-05-06 22:40 53.65322 9.97604 201 ft 130 kts 151°
2026-05-06 22:41 53.64107 9.98687 51 ft 37 kts 152°
2026-05-06 22:41 53.63956 9.98888 50 ft 20 kts 123°
2026-05-06 22:41 53.63893 9.99049 51 ft 11 kts 126°
2026-05-06 22:42 53.63889 9.99058 51 ft 0 kts 126°
2026-05-06 22:53 53.63848 9.99153 51 ft 16 kts 126°
2026-05-06 22:53 53.63773 9.99332 51 ft 21 kts 125°
2026-05-06 22:54 53.63685 9.99529 50 ft 22 kts 125°
2026-05-06 22:54 53.63621 9.99683 51 ft 7 kts 127°
2026-05-06 22:54 53.63617 9.99691 51 ft 0 kts 128°
2026-05-06 22:57 53.63590 9.99751 51 ft 16 kts 127°
2026-05-06 22:57 53.63516 9.99922 49 ft 19 kts 125°
2026-05-06 22:57 53.63449 10.00086 49 ft 16 kts 126°
2026-05-06 22:58 53.63368 10.00225 50 ft 18 kts 170°
2026-05-06 22:58 53.63232 10.00246 49 ft 22 kts 175°
2026-05-06 22:58 53.63123 10.00257 48 ft 12 kts 179°
2026-05-06 22:58 53.63072 10.00262 47 ft 1 kts 174°
2026-05-06 22:59 53.63018 10.00331 46 ft 12 kts 119°
2026-05-06 22:59 53.63006 10.00367 44 ft 0 kts 119°